Weather History for Troy, MI

Change the Weather History Date:

Monday, December 10, 2012

  Actual Average (KDET) Record (KDET)
Temperature  
Mean Temperature 38 °F -  
Max Temperature 43 °F 36 °F 66 °F (1971)
Min Temperature 33 °F 25 °F 4 °F (1977)
Degree Days  
Heating Degree Days 26    
Moisture  
Dew Point 33 °F    
Average Humidity 81    
Maximum Humidity 95    
Minimum Humidity 62    
Precipitation  
Precipitation 0.00 in - - ()
Sea Level Pressure  
Sea Level Pressure 29.70 in    
Wind  
Wind Speed 5 mph (WNW)    
Max Wind Speed 16 mph    
Max Gust Speed 23 mph    
Visibility 8 miles    
Events Fog , Rain , Snow    
Averages and records for this station are not official NWS values.
T = Trace of Precipitation, MM = Missing Value Source: NWS Daily Summary

Daily Weather History Graph

Daily Weather History Graph

Search for Another Location

Airport:

Trip Planner

Search our weather history database for the weather conditions in past years. The results will help you decide how hot, cold, wet, or windy it might be!

Date:

Astronomy

Dec. 10, 2012 Rise Set
Actual Time 7:51 AM EST 4:59 PM EST
Civil Twilight 7:20 AM EST 5:31 PM EST
Nautical Twilight 6:44 AM EST 6:06 PM EST
Astronomical Twilight 6:10 AM EST 6:41 PM EST
Moon 4:31 AM EST (12/10) 2:50 PM EST (12/10)
Length of Visible Light 10h 11m
Length of Day
9h 07m
Waning Crescent, 10% of the Moon is Illuminated
Dec 10
Waning Crescent
Dec 13
New
Dec 20
First Quarter
Dec 28
Full
Jan 4
Last Quarter

Hourly Weather History & Observations

Time (EST) Temp. Windchill Dew Point Humidity Pressure Visibility Wind Dir Wind Speed Gust Speed Precip Events Conditions
12:14 AM 37.4 °F - 35.8 °F 94% 29.66 in 0.5 mi Calm Calm - N/A   Overcast
12:35 AM 37.0 °F 34.5 °F 35.6 °F 95% 29.66 in 0.5 mi NNW 3.5 mph - N/A Snow Light Snow
12:54 AM 38.1 °F - 36.7 °F 95% 29.65 in 0.5 mi Calm Calm - N/A Fog Fog
1:14 AM 38.8 °F - 37.4 °F 95% 29.65 in 0.5 mi Calm Calm - N/A Fog Fog
1:34 AM 38.8 °F - 37.4 °F 95% 29.65 in 0.5 mi Calm Calm - N/A Fog Fog
1:54 AM 38.7 °F - 37.2 °F 95% 29.64 in 0.8 mi Calm Calm - N/A   Overcast
2:15 AM 38.5 °F - 37.0 °F 95% 29.64 in 0.5 mi Calm Calm - N/A Fog Fog
2:34 AM 38.5 °F - 37.0 °F 95% 29.63 in 0.8 mi Calm Calm - N/A   Overcast
2:54 AM 38.7 °F 36.3 °F 37.4 °F 95% 29.63 in 1.5 mi WSW 3.5 mph - N/A   Overcast
3:14 AM 39.0 °F 35.7 °F 37.6 °F 95% 29.63 in 3.0 mi WSW 4.6 mph - N/A   Overcast
3:55 AM 39.7 °F 35.6 °F 38.3 °F 95% 29.62 in 4.0 mi West 5.8 mph - N/A   Overcast
4:14 AM 39.7 °F 35.6 °F 38.3 °F 95% 29.61 in 5.0 mi West 5.8 mph - N/A   Overcast
4:34 AM 40.1 °F 36.1 °F 38.5 °F 94% 29.61 in 5.0 mi West 5.8 mph - N/A   Overcast
4:55 AM 41.0 °F 35.8 °F 39.2 °F 93% 29.62 in 7.0 mi WSW 8.1 mph - N/A   Overcast
5:14 AM 41.2 °F 37.3 °F 39.4 °F 93% 29.62 in 7.0 mi West 5.8 mph - N/A   Overcast
5:35 AM 41.5 °F 37.8 °F 39.4 °F 92% 29.62 in 7.0 mi WSW 5.8 mph - N/A   Overcast
5:54 AM 41.9 °F 38.2 °F 39.4 °F 91% 29.62 in 4.0 mi West 5.8 mph - N/A   Overcast
6:14 AM 42.1 °F 37.7 °F 39.7 °F 91% 29.63 in 3.0 mi West 6.9 mph - N/A   Overcast
6:34 AM 41.9 °F 38.2 °F 39.7 °F 92% 29.64 in 3.0 mi West 5.8 mph - N/A   Overcast
6:54 AM 42.1 °F 39.2 °F 39.7 °F 91% 29.63 in 4.0 mi West 4.6 mph - N/A   Overcast
7:15 AM 42.1 °F 39.2 °F 40.1 °F 93% 29.63 in 3.0 mi West 4.6 mph - N/A   Overcast
7:34 AM 42.1 °F 38.4 °F 39.7 °F 91% 29.64 in 4.0 mi West 5.8 mph - N/A   Overcast
8:15 AM 42.3 °F 39.4 °F 39.7 °F 91% 29.65 in 7.0 mi WSW 4.6 mph - N/A   Overcast
8:34 AM 42.3 °F 38.6 °F 39.6 °F 90% 29.65 in 7.0 mi WSW 5.8 mph - N/A   Overcast
8:55 AM 42.6 °F 38.4 °F 39.4 °F 88% 29.66 in 10.0 mi WSW 6.9 mph - N/A   Overcast
9:15 AM 42.8 °F 38.6 °F 39.2 °F 87% 29.66 in 10.0 mi WSW 6.9 mph - N/A   Overcast
9:34 AM 42.8 °F 36.6 °F 38.7 °F 85% 29.66 in 10.0 mi WSW 11.5 mph 16.1 mph N/A   Overcast
9:55 AM 42.8 °F 37.5 °F 37.9 °F 83% 29.66 in 10.0 mi West 9.2 mph - N/A   Overcast
10:15 AM 42.8 °F 39.3 °F 38.1 °F 84% 29.67 in 10.0 mi West 5.8 mph - N/A   Overcast
10:34 AM 43.0 °F 37.2 °F 37.8 °F 82% 29.66 in 10.0 mi West 10.4 mph - N/A   Overcast
10:55 AM 42.8 °F 35.8 °F 37.4 °F 81% 29.67 in 7.0 mi WNW 13.8 mph - N/A Rain Light Rain
11:14 AM 42.4 °F 37.0 °F 38.1 °F 85% 29.68 in 10.0 mi West 9.2 mph - N/A   Overcast
11:34 AM 42.3 °F 35.9 °F 36.7 °F 81% 29.67 in 10.0 mi WNW 11.5 mph 18.4 mph N/A   Overcast
11:55 AM 42.4 °F 35.7 °F 35.4 °F 76% 29.67 in 10.0 mi West 12.7 mph 23.0 mph N/A   Overcast
12:14 PM 42.3 °F 36.8 °F 35.6 °F 77% 29.67 in 10.0 mi WNW 9.2 mph 16.1 mph N/A   Overcast
12:34 PM 42.4 °F 36.5 °F 35.6 °F 77% 29.67 in 10.0 mi West 10.4 mph - N/A   Overcast
12:55 PM 42.1 °F 35.2 °F 35.2 °F 77% 29.66 in 10.0 mi WNW 12.7 mph - N/A   Overcast
1:14 PM 41.4 °F 34.7 °F 35.1 °F 78% 29.67 in 10.0 mi NNW 11.5 mph - N/A   Overcast
1:34 PM 40.1 °F 33.6 °F 34.5 °F 80% 29.67 in 10.0 mi NW 10.4 mph 18.4 mph N/A   Overcast
1:55 PM 39.6 °F 32.1 °F 33.8 °F 80% 29.67 in 10.0 mi NW 12.7 mph 16.1 mph N/A   Overcast
2:14 PM 38.3 °F 29.3 °F 33.1 °F 81% 29.68 in 10.0 mi NW 16.1 mph 19.6 mph N/A   Overcast
2:35 PM 37.6 °F 29.1 °F 32.0 °F 80% 29.68 in 10.0 mi NW 13.8 mph 21.9 mph N/A   Overcast
2:55 PM 37.4 °F 29.8 °F 32.0 °F 81% 29.69 in 10.0 mi NW 11.5 mph 16.1 mph N/A   Overcast
3:14 PM 37.4 °F 31.4 °F 32.0 °F 81% 29.70 in 10.0 mi NW 8.1 mph 16.1 mph N/A   Overcast
3:35 PM 37.4 °F 31.4 °F 31.8 °F 80% 29.70 in 10.0 mi NW 8.1 mph - N/A   Overcast
3:54 PM 37.4 °F 32.1 °F 31.1 °F 78% 29.71 in 10.0 mi NW 6.9 mph - N/A   Overcast
4:14 PM 37.4 °F 30.3 °F 30.2 °F 75% 29.73 in 10.0 mi WNW 10.4 mph - N/A   Overcast
4:35 PM 37.0 °F 30.4 °F 28.9 °F 73% 29.73 in 10.0 mi NW 9.2 mph - N/A   Overcast
4:54 PM 36.9 °F 30.1 °F 28.6 °F 72% 29.73 in 10.0 mi NW 9.2 mph - N/A   Overcast
5:14 PM 36.1 °F 30.6 °F 28.8 °F 75% 29.73 in 10.0 mi NW 6.9 mph - N/A   Mostly Cloudy
5:35 PM 36.5 °F 31.0 °F 28.4 °F 72% 29.75 in 10.0 mi NW 6.9 mph - N/A   Mostly Cloudy
5:54 PM 36.3 °F 30.8 °F 28.2 °F 72% 29.76 in 10.0 mi NW 6.9 mph - N/A   Overcast
6:14 PM 36.5 °F 31.0 °F 28.2 °F 72% 29.77 in 10.0 mi WNW 6.9 mph - N/A   Overcast
6:35 PM 36.3 °F 30.8 °F 28.4 °F 73% 29.78 in 10.0 mi NNW 6.9 mph - N/A   Overcast
6:54 PM 36.3 °F 32.5 °F 28.4 °F 73% 29.79 in 10.0 mi WNW 4.6 mph - N/A   Overcast
7:15 PM 36.3 °F 30.1 °F 28.2 °F 72% 29.79 in 10.0 mi NW 8.1 mph - N/A   Overcast
7:34 PM 36.3 °F 30.8 °F 28.2 °F 72% 29.80 in 10.0 mi NW 6.9 mph - N/A   Overcast
8:15 PM 36.1 °F 32.3 °F 27.0 °F 69% 29.81 in 10.0 mi WNW 4.6 mph - N/A   Overcast
8:34 PM 36.1 °F 32.3 °F 26.6 °F 68% 29.82 in 10.0 mi North 4.6 mph - N/A   Overcast
8:55 PM 35.6 °F 29.9 °F 25.0 °F 65% 29.82 in 10.0 mi NNW 6.9 mph - N/A   Overcast
9:14 PM 35.4 °F 27.3 °F 24.3 °F 64% 29.82 in 10.0 mi NNW 11.5 mph - N/A   Overcast
9:35 PM 35.1 °F 28.6 °F 23.7 °F 63% 29.83 in 10.0 mi NW 8.1 mph - N/A   Overcast
9:55 PM 34.9 °F 28.3 °F 23.5 °F 63% 29.85 in 10.0 mi NNW 8.1 mph - N/A   Overcast
10:14 PM 34.7 °F 27.5 °F 23.0 °F 62% 29.85 in 10.0 mi NNW 9.2 mph - N/A   Overcast
10:35 PM 34.5 °F 27.9 °F 22.8 °F 62% 29.86 in 10.0 mi NNW 8.1 mph - N/A   Overcast
10:54 PM 34.2 °F 27.5 °F 22.6 °F 63% 29.87 in 10.0 mi NNW 8.1 mph 16.1 mph N/A   Overcast
11:15 PM 34.2 °F 28.2 °F 22.8 °F 63% 29.87 in 10.0 mi NW 6.9 mph - N/A   Overcast
11:34 PM 34.2 °F 28.2 °F 22.8 °F 63% 29.88 in 10.0 mi NW 6.9 mph - N/A   Overcast
11:54 PM 33.8 °F 27.0 °F 22.3 °F 63% 29.88 in 10.0 mi NNW 8.1 mph - N/A   Overcast